Location: Glens Falls
(43.3090°N, 73.6440°W)
Time: 12:39:39

Meteor 2-4 Rocket - Pass Details

Date: 24 February 2018
Orbit: 799 x 909 km, 81.2° (Epoch: 18 March)

Event Time Altitude Azimuth Distance (km) Brightness Sun altitude
Rises 19:12:05 0° 351° (N) 3,506 7.1 -18.0°
Reaches altitude 10° 19:14:36 10° 353° (N) 2,548 6.3 -18.4°
Maximum altitude 19:20:23 73° 79° (ENE) 903 3.6 -19.5°
Drops below altitude 10° 19:25:58 10° 164° (SSE) 2,457 5.9 -20.5°
Enters shadow 19:27:42 - 166° (SSE) 3,120 6.4 -20.8°
